Time,TemperatureF,DewpointF,PressureIn,WindDirection,WindDirectionDegrees,WindSpeedMPH,WindSpeedGustMPH,Humidity,HourlyPrecipIn,Conditions,Clouds,dailyrainin,SolarRadiationWatts/m^2,SoftwareType,DateUTC
2013-11-21 00:02:00,63.3,56.7,29.99,SE,135,5.8,5.8,79,0.00,CLR,,0.00,0.0,WeatherDisplay:10.37,2013-11-21 06:02:00,
2013-11-21 00:07:00,63.3,56.7,30.00,SE,135,5.8,5.8,79,0.00,CLR,,0.00,0.0,WeatherDisplay:10.37,2013-11-21 06:07:00,
2013-11-21 00:12:00,63.3,56.7,30.00,SE,135,5.8,5.8,79,0.00,CLR,,0.00,0.0,WeatherDisplay:10.37,2013-11-21 06:12:00,
2013-11-21 00:17:00,63.0,56.7,30.00,SSE,158,1.6,2.4,80,0.00,CLR,,0.00,0.0,WeatherDisplay:10.37,2013-11-21 06:17:00,
2013-11-21 00:22:00,63.0,57.0,30.00,SSE,158,5.8,5.8,81,0.00,CLR,,0.00,0.0,WeatherDisplay:10.37,2013-11-21 06:22:00,
2013-11-21 00:27:00,62.8,56.9,29.99,ESE,112,4.6,4.6,81,0.00,CLR,,0.00,0.0,WeatherDisplay:10.37,2013-11-21 06:27:00,
2013-11-21 00:32:00,62.8,57.2,29.99,ENE,68,4.6,4.6,82,0.00,CLR,,0.00,0.0,WeatherDisplay:10.37,2013-11-21 06:32:00,
2013-11-21 00:37:00,62.8,57.2,29.99,NW,315,4.6,4.6,82,0.00,CLR,,0.00,0.0,WeatherDisplay:10.37,2013-11-21 06:37:00,
2013-11-21 00:42:00,62.8,57.2,29.99,SE,135,2.3,2.4,82,0.00,CLR,,0.00,0.0,WeatherDisplay:10.37,2013-11-21 06:42:00,
2013-11-21 00:47:00,62.8,57.5,29.99,SSE,158,6.9,6.9,83,0.00,CLR,,0.00,0.0,WeatherDisplay:10.37,2013-11-21 06:47:00,
2013-11-21 00:52:00,62.6,57.4,29.99,ESE,112,3.5,3.5,83,0.00,CLR,,0.00,0.0,WeatherDisplay:10.37,2013-11-21 06:52:00,
2013-11-21 00:57:00,62.8,57.9,29.99,SSW,202,5.8,5.8,84,0.00,CLR,,0.00,0.0,WeatherDisplay:10.37,2013-11-21 06:57:00,
2013-11-21 01:02:00,62.6,57.7,29.99,SSE,158,4.6,4.6,84,0.00,CLR,,0.00,0.0,WeatherDisplay:10.37,2013-11-21 07:02:00,
2013-11-21 01:07:00,62.6,57.7,29.99,SSE,158,4.6,4.6,84,0.00,CLR,,0.00,0.0,WeatherDisplay:10.37,2013-11-21 07:07:00,
2013-11-21 01:12:00,62.6,57.7,29.99,South,180,4.8,4.8,84,0.00,CLR,,0.00,0.0,WeatherDisplay:10.37,2013-11-21 07:12:00,
2013-11-21 01:17:00,62.8,57.9,29.99,ESE,112,3.5,3.5,84,0.00,CLR,,0.00,0.0,WeatherDisplay:10.37,2013-11-21 07:17:00,
2013-11-21 01:22:00,62.8,58.2,29.99,South,180,4.6,4.6,85,0.00,CLR,,0.00,0.0,WeatherDisplay:10.37,2013-11-21 07:22:00,
2013-11-21 01:27:00,62.6,58.0,29.98,SE,135,6.9,6.9,85,0.00,CLR,,0.00,0.0,WeatherDisplay:10.37,2013-11-21 07:27:00,
2013-11-21 01:32:00,62.8,58.2,29.98,SE,135,8.1,8.1,85,0.00,CLR,,0.00,0.0,WeatherDisplay:10.37,2013-11-21 07:32:00,
2013-11-21 01:37:00,62.8,58.2,29.98,SE,135,4.6,4.6,85,0.00,CLR,,0.00,0.0,WeatherDisplay:10.37,2013-11-21 07:37:00,
2013-11-21 01:42:00,62.8,58.2,29.98,SE,135,8.1,8.1,85,0.00,CLR,,0.00,0.0,WeatherDisplay:10.37,2013-11-21 07:42:00,
2013-11-21 01:47:00,62.8,58.2,30.00,SE,135,6.9,6.9,85,0.00,CLR,,0.00,0.0,WeatherDisplay:10.37,2013-11-21 07:47:00,
2013-11-21 01:52:00,62.8,58.2,30.00,SE,135,5.8,5.8,85,0.00,CLR,,0.00,0.0,WeatherDisplay:10.37,2013-11-21 07:52:00,
2013-11-21 01:57:00,62.8,58.2,30.00,ESE,112,4.6,4.6,85,0.00,CLR,,0.00,0.0,WeatherDisplay:10.37,2013-11-21 07:57:00,
2013-11-21 02:02:00,62.8,58.2,30.00,ESE,112,3.5,3.5,85,0.00,CLR,,0.00,0.0,WeatherDisplay:10.37,2013-11-21 08:02:00,
2013-11-21 02:07:00,62.8,58.2,29.98,ESE,112,4.6,4.6,85,0.00,CLR,,0.00,0.0,WeatherDisplay:10.37,2013-11-21 08:07:00,
2013-11-21 02:12:00,62.8,58.2,29.98,East,90,4.6,4.6,85,0.00,CLR,,0.00,0.0,WeatherDisplay:10.37,2013-11-21 08:12:00,
2013-11-21 02:17:00,63.0,58.4,29.98,ESE,112,2.3,3.0,85,0.00,CLR,,0.00,0.0,WeatherDisplay:10.37,2013-11-21 08:17:00,
2013-11-21 02:22:00,62.8,58.2,29.98,South,180,3.5,3.5,85,0.00,CLR,,0.00,0.0,WeatherDisplay:10.37,2013-11-21 08:22:00,
2013-11-21 02:27:00,62.8,58.2,29.99,SE,135,4.6,4.6,85,0.00,CLR,,0.00,0.0,WeatherDisplay:10.37,2013-11-21 08:27:00,
2013-11-21 02:32:00,62.8,58.2,29.99,SE,135,4.6,4.6,85,0.00,CLR,,0.00,0.0,WeatherDisplay:10.37,2013-11-21 08:32:00,
2013-11-21 02:37:00,63.0,58.4,29.99,SE,135,6.7,6.7,85,0.00,CLR,,0.00,0.0,WeatherDisplay:10.37,2013-11-21 08:37:00,
2013-11-21 02:42:00,63.0,58.4,29.99,SE,135,5.8,5.8,85,0.00,CLR,,0.00,0.0,WeatherDisplay:10.37,2013-11-21 08:42:00,
2013-11-21 02:47:00,63.0,58.4,29.98,SE,135,6.1,6.1,85,0.00,CLR,,0.00,0.0,WeatherDisplay:10.37,2013-11-21 08:47:00,
2013-11-21 02:52:00,63.0,58.4,29.98,SE,135,4.6,4.6,85,0.00,CLR,,0.00,0.0,WeatherDisplay:10.37,2013-11-21 08:52:00,
2013-11-21 02:57:00,63.0,58.7,29.98,SE,135,4.6,4.6,86,0.00,CLR,,0.00,0.0,WeatherDisplay:10.37,2013-11-21 08:57:00,
2013-11-21 03:02:00,63.0,58.7,29.98,SSE,158,3.5,3.5,86,0.00,CLR,,0.00,0.0,WeatherDisplay:10.37,2013-11-21 09:02:00,
2013-11-21 03:07:00,63.0,58.7,29.98,SSE,158,3.5,3.5,86,0.00,CLR,,0.00,0.0,WeatherDisplay:10.37,2013-11-21 09:07:00,
2013-11-21 03:12:00,63.0,58.7,29.98,SSE,158,3.5,3.5,86,0.00,CLR,,0.00,0.0,WeatherDisplay:10.37,2013-11-21 09:12:00,
2013-11-21 03:17:00,63.0,58.7,29.98,SSE,158,3.5,3.5,86,0.00,CLR,,0.00,0.0,WeatherDisplay:10.37,2013-11-21 09:17:00,
2013-11-21 03:22:00,63.0,58.7,29.98,SE,135,3.5,3.5,86,0.00,CLR,,0.00,0.0,WeatherDisplay:10.37,2013-11-21 09:22:00,
2013-11-21 03:27:00,63.0,58.7,29.98,East,90,2.3,2.4,86,0.00,CLR,,0.00,0.0,WeatherDisplay:10.37,2013-11-21 09:27:00,
2013-11-21 03:32:00,63.0,58.7,29.98,SE,135,3.5,3.5,86,0.00,CLR,,0.00,0.0,WeatherDisplay:10.37,2013-11-21 09:32:00,
2013-11-21 03:37:00,63.1,58.9,29.98,South,180,2.3,2.3,86,0.00,CLR,,0.00,0.0,WeatherDisplay:10.37,2013-11-21 09:37:00,
2013-11-21 03:42:00,63.1,58.9,29.98,South,180,4.6,4.6,86,0.00,CLR,,0.00,0.0,WeatherDisplay:10.37,2013-11-21 09:42:00,
2013-11-21 03:47:00,63.5,59.6,29.98,SE,135,4.6,4.6,87,0.00,CLR,,0.00,0.0,WeatherDisplay:10.37,2013-11-21 09:47:00,
2013-11-21 03:52:00,63.3,59.4,29.98,SE,135,8.1,8.1,87,0.00,CLR,,0.00,0.0,WeatherDisplay:10.37,2013-11-21 09:52:00,
2013-11-21 03:58:00,63.5,59.9,29.98,SE,135,5.8,5.8,88,0.00,CLR,,0.00,0.0,WeatherDisplay:10.37,2013-11-21 09:58:00,
2013-11-21 04:03:00,63.5,59.9,29.98,SSE,158,5.8,5.8,88,0.00,CLR,,0.00,0.0,WeatherDisplay:10.37,2013-11-21 10:03:00,
2013-11-21 04:08:00,63.9,60.2,29.97,SSE,158,8.1,8.1,88,0.00,CLR,,0.00,0.0,WeatherDisplay:10.37,2013-11-21 10:08:00,
2013-11-21 04:13:00,63.9,60.2,29.97,ENE,68,3.5,4.6,88,0.00,CLR,,0.00,0.0,WeatherDisplay:10.37,2013-11-21 10:13:00,
2013-11-21 04:18:00,63.9,60.2,29.97,SSE,158,5.8,5.8,88,0.00,CLR,,0.00,0.0,WeatherDisplay:10.37,2013-11-21 10:18:00,
2013-11-21 04:23:00,63.7,60.1,29.97,SE,135,2.3,3.8,88,0.00,CLR,,0.00,0.0,WeatherDisplay:10.37,2013-11-21 10:23:00,
2013-11-21 04:28:00,63.7,60.1,29.97,SE,135,5.8,5.8,88,0.00,CLR,,0.00,0.0,WeatherDisplay:10.37,2013-11-21 10:28:00,
2013-11-21 04:33:00,63.7,60.1,29.97,SSE,158,2.3,3.2,88,0.00,CLR,,0.00,0.0,WeatherDisplay:10.37,2013-11-21 10:33:00,
2013-11-21 04:38:00,63.7,60.4,29.97,ESE,112,4.6,4.6,89,0.00,CLR,,0.00,0.0,WeatherDisplay:10.37,2013-11-21 10:38:00,
2013-11-21 04:43:00,63.9,60.6,29.97,SE,135,5.8,5.8,89,0.00,CLR,,0.00,0.0,WeatherDisplay:10.37,2013-11-21 10:43:00,
2013-11-21 04:48:00,63.9,60.6,29.97,SE,135,4.6,4.6,89,0.00,CLR,,0.00,0.0,WeatherDisplay:10.37,2013-11-21 10:48:00,
2013-11-21 04:53:00,63.9,60.6,29.97,SSE,158,5.8,5.8,89,0.00,CLR,,0.00,0.0,WeatherDisplay:10.37,2013-11-21 10:53:00,
2013-11-21 04:58:00,63.9,60.6,29.97,SE,135,5.9,5.9,89,0.00,CLR,,0.00,0.0,WeatherDisplay:10.37,2013-11-21 10:58:00,
2013-11-21 05:03:00,63.9,60.6,29.97,SE,135,3.5,3.5,89,0.00,CLR,,0.00,0.0,WeatherDisplay:10.37,2013-11-21 11:03:00,
2013-11-21 05:08:00,63.9,60.9,29.97,SSE,158,4.9,4.9,90,0.00,CLR,,0.00,0.0,WeatherDisplay:10.37,2013-11-21 11:08:00,
2013-11-21 05:13:00,63.9,60.9,29.97,SE,135,3.5,3.5,90,0.00,CLR,,0.00,0.0,WeatherDisplay:10.37,2013-11-21 11:13:00,
2013-11-21 05:18:00,63.9,60.9,29.97,ESE,112,3.5,3.5,90,0.00,CLR,,0.00,0.0,WeatherDisplay:10.37,2013-11-21 11:18:00,
2013-11-21 05:23:00,63.9,60.9,29.97,SE,135,3.3,3.3,90,0.00,CLR,,0.00,0.0,WeatherDisplay:10.37,2013-11-21 11:23:00,
2013-11-21 05:28:00,63.9,60.9,29.98,SE,135,1.5,2.5,90,0.00,CLR,,0.00,0.0,WeatherDisplay:10.37,2013-11-21 11:28:00,
2013-11-21 05:33:00,63.9,60.9,29.98,SE,135,3.5,3.5,90,0.00,CLR,,0.00,0.0,WeatherDisplay:10.37,2013-11-21 11:33:00,
2013-11-21 05:38:00,63.9,60.9,29.98,ESE,112,5.8,5.8,90,0.00,CLR,,0.00,0.0,WeatherDisplay:10.37,2013-11-21 11:38:00,
2013-11-21 05:43:00,63.9,60.9,29.98,SE,135,4.6,4.6,90,0.00,CLR,,0.00,0.0,WeatherDisplay:10.37,2013-11-21 11:43:00,
2013-11-21 05:48:00,63.9,60.9,29.99,SE,135,4.6,4.6,90,0.00,CLR,,0.00,0.0,WeatherDisplay:10.37,2013-11-21 11:48:00,
2013-11-21 05:53:00,63.9,60.9,29.99,SE,135,4.6,4.6,90,0.00,CLR,,0.00,0.0,WeatherDisplay:10.37,2013-11-21 11:53:00,
2013-11-21 05:58:00,63.9,60.9,29.99,South,180,4.6,4.6,90,0.00,CLR,,0.00,0.0,WeatherDisplay:10.37,2013-11-21 11:58:00,
2013-11-21 06:03:00,63.9,60.9,29.99,SSE,158,3.5,3.5,90,0.00,CLR,,0.00,0.0,WeatherDisplay:10.37,2013-11-21 12:03:00,
2013-11-21 06:08:00,63.9,60.9,29.99,SSE,158,3.5,3.5,90,0.00,CLR,,0.00,0.0,WeatherDisplay:10.37,2013-11-21 12:08:00,
2013-11-21 06:13:00,63.9,61.2,29.99,SSE,158,3.5,3.5,91,0.00,CLR,,0.00,0.0,WeatherDisplay:10.37,2013-11-21 12:13:00,
2013-11-21 06:18:00,63.9,60.9,29.99,SE,135,4.6,4.6,90,0.00,CLR,,0.00,0.0,WeatherDisplay:10.37,2013-11-21 12:18:00,
2013-11-21 06:23:00,64.0,61.4,29.99,SE,135,3.5,3.5,91,0.00,CLR,,0.00,0.0,WeatherDisplay:10.37,2013-11-21 12:23:00,
2013-11-21 06:28:00,63.9,61.2,29.99,SE,135,3.5,3.5,91,0.00,CLR,,0.00,0.0,WeatherDisplay:10.37,2013-11-21 12:28:00,
2013-11-21 06:33:00,64.0,61.4,29.99,SSE,158,2.8,2.8,91,0.00,CLR,,0.00,0.0,WeatherDisplay:10.37,2013-11-21 12:33:00,
2013-11-21 06:38:00,64.0,61.4,29.99,East,90,4.6,4.6,91,0.00,CLR,,0.00,0.0,WeatherDisplay:10.37,2013-11-21 12:38:00,
2013-11-21 06:43:00,64.2,61.5,29.99,SE,135,2.3,2.6,91,0.00,CLR,,0.00,0.0,WeatherDisplay:10.37,2013-11-21 12:43:00,
2013-11-21 06:48:00,64.2,61.5,30.00,SE,135,3.5,3.5,91,0.00,CLR,,0.00,0.0,WeatherDisplay:10.37,2013-11-21 12:48:00,
2013-11-21 06:53:00,64.0,61.4,30.00,SE,135,2.3,2.6,91,0.00,CLR,,0.00,0.0,WeatherDisplay:10.37,2013-11-21 12:53:00,
2013-11-21 06:58:00,64.0,61.4,30.00,South,180,3.5,3.5,91,0.00,CLR,,0.00,0.0,WeatherDisplay:10.37,2013-11-21 12:58:00,
2013-11-21 07:03:00,64.2,61.5,30.00,SSE,158,2.3,2.3,91,0.00,OVC,,0.00,0.0,WeatherDisplay:10.37,2013-11-21 13:03:00,
2013-11-21 07:08:00,64.2,61.5,30.00,SE,135,6.9,6.9,91,0.00,OVC,,0.00,0.0,WeatherDisplay:10.37,2013-11-21 13:08:00,
2013-11-21 07:13:00,64.2,61.8,30.00,North,0,4.6,4.6,92,0.00,OVC,,0.00,0.0,WeatherDisplay:10.37,2013-11-21 13:13:00,
2013-11-21 07:18:00,64.2,61.8,30.00,ESE,112,6.9,6.9,92,0.00,OVC,,0.00,0.0,WeatherDisplay:10.37,2013-11-21 13:18:00,
2013-11-21 07:23:00,64.2,61.8,30.00,South,180,2.3,2.8,92,0.00,OVC,,0.00,0.0,WeatherDisplay:10.37,2013-11-21 13:23:00,
2013-11-21 07:28:00,64.4,62.0,30.03,SE,135,3.5,3.5,92,0.00,OVC,,0.00,0.0,WeatherDisplay:10.37,2013-11-21 13:28:00,
2013-11-21 07:33:00,64.2,61.8,30.03,ESE,112,4.6,4.6,92,0.00,OVC,,0.00,0.0,WeatherDisplay:10.37,2013-11-21 13:33:00,
2013-11-21 07:38:00,64.2,61.8,30.03,SE,135,2.3,2.5,92,0.00,OVC,,0.00,0.0,WeatherDisplay:10.37,2013-11-21 13:38:00,
2013-11-21 07:43:00,64.4,62.0,30.03,SE,135,3.3,3.3,92,0.00,OVC,,0.00,0.0,WeatherDisplay:10.37,2013-11-21 13:43:00,
2013-11-21 07:48:00,64.2,61.8,30.03,SE,135,2.3,2.3,92,0.00,OVC,,0.00,0.0,WeatherDisplay:10.37,2013-11-21 13:48:00,
2013-11-21 07:53:00,64.4,62.0,30.03,ESE,112,2.3,2.3,92,0.00,OVC,,0.00,0.0,WeatherDisplay:10.37,2013-11-21 13:53:00,
2013-11-21 07:58:00,64.4,62.0,30.03,NNW,338,2.3,2.3,92,0.00,OVC,,0.00,0.0,WeatherDisplay:10.37,2013-11-21 13:58:00,
2013-11-21 08:03:00,64.6,62.2,30.03,East,90,4.6,4.6,92,0.00,OVC,,0.00,0.0,WeatherDisplay:10.37,2013-11-21 14:03:00,
2013-11-21 08:08:00,64.4,62.0,30.03,ESE,112,2.3,2.3,92,0.00,OVC,,0.00,0.0,WeatherDisplay:10.37,2013-11-21 14:08:00,
2013-11-21 08:13:00,64.4,62.0,30.03,SE,135,3.5,3.5,92,0.00,OVC,,0.00,0.0,WeatherDisplay:10.37,2013-11-21 14:13:00,
2013-11-21 08:18:00,64.4,62.0,30.03,ESE,112,3.5,3.5,92,0.00,OVC,,0.00,0.0,WeatherDisplay:10.37,2013-11-21 14:18:00,
2013-11-21 08:23:00,64.4,62.0,30.03,ESE,112,2.4,2.4,92,0.00,OVC,,0.00,0.0,WeatherDisplay:10.37,2013-11-21 14:23:00,
2013-11-21 08:28:00,64.6,62.2,30.04,ESE,112,3.9,3.9,92,0.00,OVC,,0.00,0.0,WeatherDisplay:10.37,2013-11-21 14:28:00,
2013-11-21 08:33:00,64.6,62.2,30.04,SE,135,3.5,3.5,92,0.00,OVC,,0.00,0.0,WeatherDisplay:10.37,2013-11-21 14:33:00,
2013-11-21 08:38:00,64.8,62.4,30.04,SSE,158,3.5,3.5,92,0.00,OVC,,0.00,0.0,WeatherDisplay:10.37,2013-11-21 14:38:00,
2013-11-21 08:43:00,64.9,62.6,30.04,ESE,112,4.6,4.6,92,0.00,OVC,,0.00,0.0,WeatherDisplay:10.37,2013-11-21 14:43:00,
2013-11-21 08:48:00,64.9,62.6,30.05,ESE,112,5.8,5.8,92,0.00,OVC,,0.00,0.0,WeatherDisplay:10.37,2013-11-21 14:48:00,
2013-11-21 08:53:00,64.8,62.4,30.05,ESE,112,5.8,5.8,92,0.00,OVC,,0.00,0.0,WeatherDisplay:10.37,2013-11-21 14:53:00,
2013-11-21 08:58:00,64.9,62.6,30.05,ESE,112,4.6,4.6,92,0.00,OVC,,0.00,0.0,WeatherDisplay:10.37,2013-11-21 14:58:00,
2013-11-21 09:04:00,65.1,62.7,30.05,SSE,158,5.8,5.8,92,0.00,OVC,,0.00,0.0,WeatherDisplay:10.37,2013-11-21 15:04:00,
2013-11-21 09:09:00,65.3,62.9,30.04,SSE,158,4.6,4.6,92,0.00,OVC,,0.00,0.0,WeatherDisplay:10.37,2013-11-21 15:09:00,
2013-11-21 09:14:00,65.3,62.9,30.04,SE,135,4.6,4.6,92,0.00,OVC,,0.00,0.0,WeatherDisplay:10.37,2013-11-21 15:14:00,
2013-11-21 09:19:00,65.3,62.9,30.04,East,90,3.5,3.5,92,0.00,OVC,,0.00,0.0,WeatherDisplay:10.37,2013-11-21 15:19:00,
2013-11-21 09:24:00,65.5,63.4,30.04,SE,135,6.9,6.9,93,0.00,OVC,,0.00,0.0,WeatherDisplay:10.37,2013-11-21 15:24:00,
2013-11-21 09:29:00,65.5,63.4,30.05,ESE,112,4.6,4.6,93,0.00,OVC,,0.00,0.0,WeatherDisplay:10.37,2013-11-21 15:29:00,
2013-11-21 09:34:00,65.8,63.8,30.05,SE,135,4.6,4.6,93,0.00,OVC,,0.00,0.0,WeatherDisplay:10.37,2013-11-21 15:34:00,
2013-11-21 09:39:00,65.8,63.8,30.05,SE,135,4.6,4.6,93,0.00,OVC,,0.00,0.0,WeatherDisplay:10.37,2013-11-21 15:39:00,
2013-11-21 09:44:00,66.0,63.9,30.05,SSE,158,2.8,3.2,93,0.00,OVC,,0.00,40.0,WeatherDisplay:10.37,2013-11-21 15:44:00,
2013-11-21 09:49:00,66.0,63.9,30.07,SE,135,4.6,4.6,93,0.00,OVC,,0.00,50.0,WeatherDisplay:10.37,2013-11-21 15:49:00,
2013-11-21 09:54:00,66.0,63.9,30.07,SE,135,3.5,3.5,93,0.00,OVC,,0.00,40.0,WeatherDisplay:10.37,2013-11-21 15:54:00,
2013-11-21 09:59:00,66.0,63.9,30.07,ESE,112,2.3,2.3,93,0.00,OVC,,0.00,40.0,WeatherDisplay:10.37,2013-11-21 15:59:00,
2013-11-21 10:04:00,66.0,63.9,30.07,South,180,0.0,1.5,93,0.00,OVC,,0.00,40.0,WeatherDisplay:10.37,2013-11-21 16:04:00,
2013-11-21 10:09:00,66.4,64.3,30.06,SSE,158,5.8,5.8,93,0.00,OVC,,0.00,50.0,WeatherDisplay:10.37,2013-11-21 16:09:00,
2013-11-21 10:14:00,66.6,64.5,30.06,South,180,2.6,2.8,93,0.00,OVC,,0.00,50.0,WeatherDisplay:10.37,2013-11-21 16:14:00,
2013-11-21 10:19:00,66.6,64.5,30.06,East,90,4.6,4.6,93,0.00,OVC,,0.00,50.0,WeatherDisplay:10.37,2013-11-21 16:19:00,
2013-11-21 10:24:00,66.6,64.5,30.06,SE,135,4.6,4.6,93,0.00,OVC,,0.00,50.0,WeatherDisplay:10.37,2013-11-21 16:24:00,
2013-11-21 10:29:00,66.6,64.5,30.06,SE,135,4.6,4.6,93,0.00,OVC,,0.00,50.0,WeatherDisplay:10.37,2013-11-21 16:29:00,
2013-11-21 10:34:00,66.9,64.8,30.06,SE,135,5.2,5.2,93,0.00,OVC,,0.00,50.0,WeatherDisplay:10.37,2013-11-21 16:34:00,
2013-11-21 10:39:00,66.7,64.7,30.06,ESE,112,3.5,3.5,93,0.00,OVC,,0.00,50.0,WeatherDisplay:10.37,2013-11-21 16:39:00,
2013-11-21 10:44:00,66.9,64.8,30.06,SE,135,5.8,5.8,93,0.00,OVC,,0.00,50.0,WeatherDisplay:10.37,2013-11-21 16:44:00,
2013-11-21 10:49:00,66.9,64.8,30.06,ESE,112,6.9,6.9,93,0.00,OVC,,0.00,50.0,WeatherDisplay:10.37,2013-11-21 16:49:00,
2013-11-21 10:54:00,67.1,65.0,30.06,ESE,112,3.5,4.0,93,0.00,OVC,,0.00,40.0,WeatherDisplay:10.37,2013-11-21 16:54:00,
2013-11-21 10:59:00,67.3,65.2,30.06,ESE,112,4.6,4.6,93,0.00,OVC,,0.00,50.0,WeatherDisplay:10.37,2013-11-21 16:59:00,
2013-11-21 11:04:00,67.5,65.4,30.06,SE,135,9.2,9.2,93,0.00,OVC,,0.00,50.0,WeatherDisplay:10.37,2013-11-21 17:04:00,
2013-11-21 11:09:00,67.3,65.2,30.06,SE,135,4.6,4.6,93,0.00,OVC,,0.00,50.0,WeatherDisplay:10.37,2013-11-21 17:09:00,
2013-11-21 11:14:00,67.5,65.4,30.06,SSE,158,4.8,4.8,93,0.00,OVC,,0.00,60.0,WeatherDisplay:10.37,2013-11-21 17:14:00,
2013-11-21 11:19:00,67.6,65.5,30.06,SE,135,5.8,5.8,93,0.00,OVC,,0.00,60.0,WeatherDisplay:10.37,2013-11-21 17:19:00,
2013-11-21 11:24:00,67.8,65.7,30.06,SE,135,3.5,3.5,93,0.00,OVC,,0.00,60.0,WeatherDisplay:10.37,2013-11-21 17:24:00,
2013-11-21 11:29:00,67.8,65.7,30.06,SE,135,4.6,4.6,93,0.00,OVC,,0.00,50.0,WeatherDisplay:10.37,2013-11-21 17:29:00,
2013-11-21 11:34:00,67.8,65.7,30.06,SSE,158,3.5,3.5,93,0.00,OVC,,0.00,50.0,WeatherDisplay:10.37,2013-11-21 17:34:00,
2013-11-21 11:39:00,68.0,65.9,30.06,SE,135,4.6,4.6,93,0.00,OVC,,0.00,60.0,WeatherDisplay:10.37,2013-11-21 17:39:00,
2013-11-21 11:44:00,68.0,65.9,30.06,SE,135,5.8,5.8,93,0.00,OVC,,0.00,60.0,WeatherDisplay:10.37,2013-11-21 17:44:00,
2013-11-21 11:49:00,68.4,66.3,30.06,SSE,158,4.6,4.6,93,0.00,OVC,,0.00,60.0,WeatherDisplay:10.37,2013-11-21 17:49:00,
2013-11-21 11:54:00,68.5,66.4,30.06,SE,135,2.3,2.6,93,0.00,OVC,,0.00,60.0,WeatherDisplay:10.37,2013-11-21 17:54:00,
2013-11-21 11:59:00,68.4,66.3,30.06,ESE,112,2.5,2.5,93,0.00,OVC,,0.00,60.0,WeatherDisplay:10.37,2013-11-21 17:59:00,
2013-11-21 12:04:00,68.7,66.6,30.06,ESE,112,0.0,1.5,93,0.00,OVC,,0.00,60.0,WeatherDisplay:10.37,2013-11-21 18:04:00,
2013-11-21 12:09:00,68.7,66.6,30.05,ESE,112,0.0,1.5,93,0.00,OVC,,0.00,60.0,WeatherDisplay:10.37,2013-11-21 18:09:00,
2013-11-21 12:14:00,68.9,66.8,30.05,SE,135,2.3,2.3,93,0.00,OVC,,0.00,60.0,WeatherDisplay:10.37,2013-11-21 18:14:00,
2013-11-21 12:19:00,69.3,67.1,30.05,ENE,68,3.5,3.5,93,0.00,OVC,,0.00,60.0,WeatherDisplay:10.37,2013-11-21 18:19:00,
2013-11-21 12:24:00,69.1,67.0,30.05,ESE,112,2.3,2.3,93,0.00,OVC,,0.00,60.0,WeatherDisplay:10.37,2013-11-21 18:24:00,
2013-11-21 12:29:00,69.3,67.1,30.05,SSE,158,3.5,3.5,93,0.00,OVC,,0.00,60.0,WeatherDisplay:10.37,2013-11-21 18:29:00,
2013-11-21 12:34:00,69.4,67.3,30.05,SSE,158,1.6,1.6,93,0.00,OVC,,0.00,60.0,WeatherDisplay:10.37,2013-11-21 18:34:00,
2013-11-21 12:39:00,69.6,67.5,30.05,SSE,158,3.5,3.5,93,0.00,OVC,,0.00,70.0,WeatherDisplay:10.37,2013-11-21 18:39:00,
2013-11-21 12:44:00,70.0,67.9,30.05,SE,135,5.8,5.8,93,0.00,OVC,,0.00,70.0,WeatherDisplay:10.37,2013-11-21 18:44:00,
2013-11-21 12:49:00,70.2,68.0,30.04,ESE,112,3.5,3.5,93,0.00,OVC,,0.00,70.0,WeatherDisplay:10.37,2013-11-21 18:49:00,
2013-11-21 12:54:00,70.3,68.2,30.04,SSE,158,5.8,5.8,93,0.00,OVC,,0.00,70.0,WeatherDisplay:10.37,2013-11-21 18:54:00,
2013-11-21 12:59:00,70.7,68.6,30.04,ESE,112,3.5,3.5,93,0.00,OVC,,0.00,70.0,WeatherDisplay:10.37,2013-11-21 18:59:00,
2013-11-21 13:04:00,70.9,68.8,30.04,SSE,158,6.9,6.9,93,0.00,OVC,,0.00,70.0,WeatherDisplay:10.37,2013-11-21 19:04:00,
2013-11-21 13:09:00,71.1,68.6,30.03,South,180,6.9,6.9,92,0.00,CLR,,0.00,60.0,WeatherDisplay:10.37,2013-11-21 19:09:00,
2013-11-21 13:14:00,71.1,68.6,30.03,SSE,158,4.6,4.6,92,0.00,CLR,,0.00,60.0,WeatherDisplay:10.37,2013-11-21 19:14:00,
2013-11-21 13:19:00,71.4,69.0,30.03,SSE,158,3.5,3.5,92,0.00,CLR,,0.00,60.0,WeatherDisplay:10.37,2013-11-21 19:19:00,
2013-11-21 13:24:00,71.4,69.0,30.03,East,90,3.9,3.9,92,0.00,CLR,,0.00,60.0,WeatherDisplay:10.37,2013-11-21 19:24:00,
2013-11-21 13:29:00,71.8,69.3,30.02,SE,135,3.5,3.5,92,0.00,CLR,,0.00,70.0,WeatherDisplay:10.37,2013-11-21 19:29:00,
2013-11-21 13:34:00,71.6,68.8,30.02,South,180,3.5,3.5,91,0.00,FEW,,0.00,60.0,WeatherDisplay:10.37,2013-11-21 19:34:00,
2013-11-21 13:39:00,71.8,69.0,30.02,SE,135,6.9,6.9,91,0.00,SCT,,0.00,50.0,WeatherDisplay:10.37,2013-11-21 19:39:00,
2013-11-21 13:44:00,71.8,69.0,30.02,SE,135,3.5,3.5,91,0.00,BKN,,0.00,50.0,WeatherDisplay:10.37,2013-11-21 19:44:00,
2013-11-21 13:49:00,72.1,69.4,30.02,SSE,158,4.6,4.6,91,0.00,BKN,,0.00,50.0,WeatherDisplay:10.37,2013-11-21 19:49:00,
2013-11-21 13:54:00,72.0,69.2,30.02,ESE,112,4.6,4.6,91,0.00,BKN,,0.00,50.0,WeatherDisplay:10.37,2013-11-21 19:54:00,
2013-11-21 13:59:00,72.1,69.0,30.02,ESE,112,6.9,6.9,90,0.00,OVC,,0.00,50.0,WeatherDisplay:10.37,2013-11-21 19:59:00,
2013-11-21 14:04:00,72.1,69.0,30.02,SE,135,5.8,5.8,90,0.00,OVC,,0.00,50.0,WeatherDisplay:10.37,2013-11-21 20:04:00,
2013-11-21 14:09:00,72.3,69.2,30.01,SE,135,3.5,3.5,90,0.00,OVC,,0.00,50.0,WeatherDisplay:10.37,2013-11-21 20:09:00,
2013-11-21 14:14:00,72.3,69.2,30.01,SE,135,2.3,2.8,90,0.00,OVC,,0.00,50.0,WeatherDisplay:10.37,2013-11-21 20:14:00,
2013-11-21 14:19:00,72.3,69.2,30.01,SE,135,4.6,4.6,90,0.00,OVC,,0.00,50.0,WeatherDisplay:10.37,2013-11-21 20:19:00,
2013-11-21 14:24:00,72.3,69.2,30.01,SE,135,4.6,4.6,90,0.00,OVC,,0.00,50.0,WeatherDisplay:10.37,2013-11-21 20:24:00,
2013-11-21 14:29:00,72.5,69.4,30.01,South,180,4.6,4.6,90,0.00,OVC,,0.00,50.0,WeatherDisplay:10.37,2013-11-21 20:29:00,
2013-11-21 14:35:00,72.5,69.1,30.01,SSE,158,4.6,4.6,89,0.00,OVC,,0.00,50.0,WeatherDisplay:10.37,2013-11-21 20:35:00,
2013-11-21 14:40:00,72.9,69.4,30.01,South,180,4.6,4.6,89,0.00,OVC,,0.00,50.0,WeatherDisplay:10.37,2013-11-21 20:40:00,
2013-11-21 14:45:00,72.9,69.8,30.01,ESE,112,4.6,4.6,90,0.00,OVC,,0.00,60.0,WeatherDisplay:10.37,2013-11-21 20:45:00,
2013-11-21 14:50:00,72.9,69.8,30.00,East,90,3.6,3.6,90,0.00,OVC,,0.00,60.0,WeatherDisplay:10.37,2013-11-21 20:50:00,
2013-11-21 14:55:00,72.7,69.6,30.00,East,90,3.5,3.5,90,0.00,OVC,,0.00,60.0,WeatherDisplay:10.37,2013-11-21 20:55:00,
2013-11-21 15:00:00,72.7,69.6,30.00,ESE,112,2.6,2.6,90,0.00,OVC,,0.00,60.0,WeatherDisplay:10.37,2013-11-21 21:00:00,
2013-11-21 15:05:00,73.0,69.9,30.00,ESE,112,4.6,4.6,90,0.00,OVC,,0.00,60.0,WeatherDisplay:10.37,2013-11-21 21:05:00,
2013-11-21 15:10:00,73.0,69.9,30.03,ENE,68,5.8,5.8,90,0.00,OVC,,0.00,60.0,WeatherDisplay:10.37,2013-11-21 21:10:00,
2013-11-21 15:15:00,73.0,69.9,30.03,ESE,112,5.1,5.1,90,0.00,OVC,,0.00,70.0,WeatherDisplay:10.37,2013-11-21 21:15:00,
2013-11-21 15:20:00,73.2,69.8,30.03,ESE,112,4.6,4.6,89,0.00,OVC,,0.00,70.0,WeatherDisplay:10.37,2013-11-21 21:20:00,
2013-11-21 15:25:00,73.2,69.8,30.03,ESE,112,3.5,3.5,89,0.00,OVC,,0.00,70.0,WeatherDisplay:10.37,2013-11-21 21:25:00,
2013-11-21 15:30:00,73.6,70.1,30.00,SE,135,3.5,3.5,89,0.00,OVC,,0.00,70.0,WeatherDisplay:10.37,2013-11-21 21:30:00,
2013-11-21 15:35:00,73.6,70.1,30.00,ESE,112,4.6,4.6,89,0.00,OVC,,0.00,80.0,WeatherDisplay:10.37,2013-11-21 21:35:00,
2013-11-21 15:40:00,73.6,70.1,30.00,East,90,3.5,3.5,89,0.00,OVC,,0.00,80.0,WeatherDisplay:10.37,2013-11-21 21:40:00,
2013-11-21 15:45:00,73.6,70.1,30.00,ENE,68,3.5,3.5,89,0.00,OVC,,0.00,70.0,WeatherDisplay:10.37,2013-11-21 21:45:00,
2013-11-21 15:50:00,73.4,70.0,30.00,ESE,112,5.8,5.8,89,0.00,OVC,,0.00,70.0,WeatherDisplay:10.37,2013-11-21 21:50:00,
2013-11-21 15:55:00,73.6,70.1,30.00,East,90,2.3,3.0,89,0.00,OVC,,0.00,70.0,WeatherDisplay:10.37,2013-11-21 21:55:00,
2013-11-21 16:00:00,73.8,70.3,30.00,SE,135,4.6,4.6,89,0.00,OVC,,0.00,70.0,WeatherDisplay:10.37,2013-11-21 22:00:00,
2013-11-21 16:05:00,73.8,70.3,30.00,SSE,158,4.6,4.6,89,0.00,OVC,,0.00,80.0,WeatherDisplay:10.37,2013-11-21 22:05:00,
2013-11-21 16:10:00,73.9,70.2,30.01,ESE,112,6.9,6.9,88,0.00,OVC,,0.00,80.0,WeatherDisplay:10.37,2013-11-21 22:10:00,
2013-11-21 16:15:00,73.9,70.2,30.01,East,90,3.5,3.5,88,0.00,OVC,,0.00,80.0,WeatherDisplay:10.37,2013-11-21 22:15:00,
2013-11-21 16:20:00,73.9,70.2,30.01,SSE,158,4.6,4.6,88,0.00,OVC,,0.00,80.0,WeatherDisplay:10.37,2013-11-21 22:20:00,
2013-11-21 16:25:00,73.9,70.2,30.01,ESE,112,6.9,6.9,88,0.00,OVC,,0.00,80.0,WeatherDisplay:10.37,2013-11-21 22:25:00,
2013-11-21 16:30:00,74.3,70.5,30.01,ESE,112,6.9,6.9,88,0.00,OVC,,0.00,80.0,WeatherDisplay:10.37,2013-11-21 22:30:00,
2013-11-21 16:35:00,74.3,70.5,30.01,SE,135,3.9,3.9,88,0.00,OVC,,0.00,80.0,WeatherDisplay:10.37,2013-11-21 22:35:00,
2013-11-21 16:40:00,74.3,70.2,30.01,SE,135,5.8,5.8,87,0.00,OVC,,0.00,80.0,WeatherDisplay:10.37,2013-11-21 22:40:00,
2013-11-21 16:45:00,73.9,69.8,30.01,ESE,112,8.1,8.1,87,0.00,OVC,,0.00,70.0,WeatherDisplay:10.37,2013-11-21 22:45:00,
2013-11-21 16:50:00,73.8,69.6,30.00,ESE,112,6.9,6.9,87,0.00,OVC,,0.00,70.0,WeatherDisplay:10.37,2013-11-21 22:50:00,
2013-11-21 16:55:00,73.9,69.8,30.00,ESE,112,4.6,4.6,87,0.00,OVC,,0.00,70.0,WeatherDisplay:10.37,2013-11-21 22:55:00,
2013-11-21 17:00:00,73.8,69.6,30.00,ESE,112,4.6,4.6,87,0.00,OVC,,0.00,70.0,WeatherDisplay:10.37,2013-11-21 23:00:00,
2013-11-21 17:05:00,73.8,69.6,30.00,SE,135,4.6,4.6,87,0.00,OVC,,0.00,70.0,WeatherDisplay:10.37,2013-11-21 23:05:00,
2013-11-21 17:10:00,73.6,69.8,30.02,ESE,112,6.9,6.9,88,0.00,OVC,,0.00,70.0,WeatherDisplay:10.37,2013-11-21 23:10:00,
2013-11-21 17:15:00,73.6,69.8,30.02,SE,135,8.1,8.1,88,0.00,OVC,,0.00,70.0,WeatherDisplay:10.37,2013-11-21 23:15:00,
2013-11-21 17:20:00,73.2,69.5,30.02,ESE,112,4.6,4.6,88,0.00,OVC,,0.00,70.0,WeatherDisplay:10.37,2013-11-21 23:20:00,
2013-11-21 17:25:00,73.2,69.5,30.02,ESE,112,5.8,5.8,88,0.00,OVC,,0.00,60.0,WeatherDisplay:10.37,2013-11-21 23:25:00,
2013-11-21 17:30:00,73.0,69.3,30.02,East,90,6.9,6.9,88,0.00,OVC,,0.00,60.0,WeatherDisplay:10.37,2013-11-21 23:30:00,
2013-11-21 17:35:00,73.0,69.3,30.02,SSE,158,3.5,3.9,88,0.00,OVC,,0.00,60.0,WeatherDisplay:10.37,2013-11-21 23:35:00,
2013-11-21 17:40:00,72.9,69.1,30.02,SE,135,4.6,4.6,88,0.00,OVC,,0.00,60.0,WeatherDisplay:10.37,2013-11-21 23:40:00,
2013-11-21 17:45:00,72.7,68.9,30.02,East,90,3.5,3.5,88,0.00,OVC,,0.00,60.0,WeatherDisplay:10.37,2013-11-21 23:45:00,
2013-11-21 17:50:00,72.9,69.1,30.03,SE,135,6.9,6.9,88,0.00,OVC,,0.00,60.0,WeatherDisplay:10.37,2013-11-21 23:50:00,
2013-11-21 17:55:00,72.5,68.7,30.03,ESE,112,3.6,3.6,88,0.00,CLR,,0.00,60.0,WeatherDisplay:10.37,2013-11-21 23:55:00,
2013-11-21 18:00:00,72.5,68.7,30.03,SE,135,4.8,4.8,88,0.00,CLR,,0.00,60.0,WeatherDisplay:10.37,2013-11-22 00:00:00,
2013-11-21 18:05:00,72.3,68.6,30.03,ESE,112,3.3,3.3,88,0.00,CLR,,0.00,50.0,WeatherDisplay:10.37,2013-11-22 00:05:00,
2013-11-21 18:10:00,72.3,68.6,30.03,East,90,5.8,5.8,88,0.00,CLR,,0.00,50.0,WeatherDisplay:10.37,2013-11-22 00:10:00,
2013-11-21 18:15:00,72.3,68.9,30.03,SE,135,6.9,6.9,89,0.00,CLR,,0.00,50.0,WeatherDisplay:10.37,2013-11-22 00:15:00,
2013-11-21 18:20:00,72.3,68.9,30.03,SE,135,8.1,8.1,89,0.00,CLR,,0.00,50.0,WeatherDisplay:10.37,2013-11-22 00:20:00,
2013-11-21 18:25:00,72.1,68.7,30.03,ESE,112,3.5,4.3,89,0.00,CLR,,0.00,50.0,WeatherDisplay:10.37,2013-11-22 00:25:00,
2013-11-21 18:30:00,72.1,68.7,30.04,ESE,112,5.8,5.8,89,0.00,CLR,,0.00,50.0,WeatherDisplay:10.37,2013-11-22 00:30:00,
2013-11-21 18:35:00,72.1,68.7,30.04,SSE,158,3.5,3.5,89,0.00,CLR,,0.00,50.0,WeatherDisplay:10.37,2013-11-22 00:35:00,
2013-11-21 18:40:00,72.1,68.7,30.04,ESE,112,3.5,3.5,89,0.00,CLR,,0.00,50.0,WeatherDisplay:10.37,2013-11-22 00:40:00,
2013-11-21 18:45:00,72.0,68.5,30.04,East,90,4.6,4.6,89,0.00,CLR,,0.00,40.0,WeatherDisplay:10.37,2013-11-22 00:45:00,
2013-11-21 18:50:00,72.1,68.7,30.06,ESE,112,4.6,4.6,89,0.00,CLR,,0.00,40.0,WeatherDisplay:10.37,2013-11-22 00:50:00,
2013-11-21 18:55:00,72.0,68.9,30.06,East,90,4.6,4.6,90,0.00,CLR,,0.00,40.0,WeatherDisplay:10.37,2013-11-22 00:55:00,
2013-11-21 19:00:00,72.1,69.0,30.06,ESE,112,4.6,4.6,90,0.00,CLR,,0.00,40.0,WeatherDisplay:10.37,2013-11-22 01:00:00,
2013-11-21 19:05:00,72.0,68.9,30.06,ESE,112,6.0,6.0,90,0.00,CLR,,0.00,40.0,WeatherDisplay:10.37,2013-11-22 01:05:00,
2013-11-21 19:10:00,72.0,68.9,30.05,SE,135,6.0,6.0,90,0.00,CLR,,0.00,40.0,WeatherDisplay:10.37,2013-11-22 01:10:00,
2013-11-21 19:15:00,71.8,68.7,30.05,SSE,158,4.6,4.6,90,0.00,CLR,,0.00,40.0,WeatherDisplay:10.37,2013-11-22 01:15:00,
2013-11-21 19:20:00,71.8,68.7,30.05,SE,135,4.6,4.6,90,0.00,CLR,,0.00,40.0,WeatherDisplay:10.37,2013-11-22 01:20:00,
2013-11-21 19:25:00,71.8,68.7,30.05,SE,135,3.7,3.7,90,0.00,CLR,,0.00,40.0,WeatherDisplay:10.37,2013-11-22 01:25:00,
2013-11-21 19:30:00,71.8,68.7,30.07,SE,135,4.6,4.6,90,0.00,CLR,,0.00,40.0,WeatherDisplay:10.37,2013-11-22 01:30:00,
2013-11-21 19:35:00,71.8,68.7,30.07,SE,135,6.9,6.9,90,0.00,CLR,,0.00,30.0,WeatherDisplay:10.37,2013-11-22 01:35:00,
2013-11-21 19:40:00,72.1,69.0,30.07,SW,225,5.8,5.8,90,0.00,CLR,,0.00,30.0,WeatherDisplay:10.37,2013-11-22 01:40:00,
2013-11-21 19:45:00,72.1,69.0,30.07,SSE,158,12.7,12.7,90,0.00,CLR,,0.00,30.0,WeatherDisplay:10.37,2013-11-22 01:45:00,
2013-11-21 19:50:00,71.8,68.7,30.06,SE,135,5.8,5.8,90,0.00,CLR,,0.00,30.0,WeatherDisplay:10.37,2013-11-22 01:50:00,
2013-11-21 19:55:00,71.8,68.7,30.06,South,180,9.2,9.2,90,0.00,CLR,,0.00,40.0,WeatherDisplay:10.37,2013-11-22 01:55:00,
2013-11-21 20:00:00,71.8,69.0,30.06,ESE,112,4.6,4.6,91,0.00,CLR,,0.00,40.0,WeatherDisplay:10.37,2013-11-22 02:00:00,
2013-11-21 20:05:00,71.8,69.0,30.06,SE,135,4.4,4.4,91,0.00,CLR,,0.00,40.0,WeatherDisplay:10.37,2013-11-22 02:05:00,
2013-11-21 20:08:00,71.8,69.0,30.06,ENE,68,4.6,4.6,91,0.00,CLR,,0.00,40.0,WeatherDisplay:10.37,2013-11-22 02:08:00,
2013-11-21 20:09:00,71.8,69.0,30.06,ENE,68,1.2,3.0,91,0.00,CLR,,0.00,0.0,WeatherDisplay:10.37,2013-11-22 02:09:00,
2013-11-21 20:14:00,71.8,69.0,30.06,NNE,22,1.2,1.3,91,0.00,CLR,,0.00,40.0,WeatherDisplay:10.37,2013-11-22 02:14:00,
2013-11-21 20:19:00,71.8,69.0,30.06,WSW,248,1.7,1.7,91,0.00,CLR,,0.00,40.0,WeatherDisplay:10.37,2013-11-22 02:19:00,
2013-11-21 20:24:00,70.9,66.5,30.06,NNW,338,4.6,4.6,86,0.00,CLR,,0.00,40.0,WeatherDisplay:10.37,2013-11-22 02:24:00,
2013-11-21 20:29:00,66.6,58.8,30.13,West,270,3.0,3.0,76,0.00,CLR,,0.00,40.0,WeatherDisplay:10.37,2013-11-22 02:29:00,
2013-11-21 20:34:00,64.6,57.2,30.13,NNW,338,6.9,6.9,77,0.00,CLR,,0.00,60.0,WeatherDisplay:10.37,2013-11-22 02:34:00,
2013-11-21 20:39:00,63.1,55.8,30.13,NW,315,2.3,2.3,77,0.00,CLR,,0.00,60.0,WeatherDisplay:10.37,2013-11-22 02:39:00,
2013-11-21 20:44:00,62.8,55.5,30.13,NNW,338,8.1,8.1,77,0.00,CLR,,0.00,60.0,WeatherDisplay:10.37,2013-11-22 02:44:00,
2013-11-21 20:49:00,61.5,54.2,30.15,West,270,4.6,4.6,77,0.00,CLR,,0.00,50.0,WeatherDisplay:10.37,2013-11-22 02:49:00,
2013-11-21 20:54:00,60.6,54.1,30.15,West,270,2.3,2.3,79,0.00,CLR,,0.00,50.0,WeatherDisplay:10.37,2013-11-22 02:54:00,
2013-11-21 20:59:00,59.4,53.2,30.15,NW,315,0.0,1.4,80,0.00,CLR,,0.00,40.0,WeatherDisplay:10.37,2013-11-22 02:59:00,
2013-11-21 21:04:00,58.6,52.5,30.15,NW,315,2.3,2.3,80,0.00,CLR,,0.00,30.0,WeatherDisplay:10.37,2013-11-22 03:04:00,
2013-11-21 21:09:00,57.0,51.2,30.20,ESE,112,2.3,2.3,81,0.06,RA,,0.13,30.0,WeatherDisplay:10.37,2013-11-22 03:09:00,
2013-11-21 21:14:00,55.8,50.3,30.20,WSW,248,3.5,3.5,82,0.13,RA,,0.13,20.0,WeatherDisplay:10.37,2013-11-22 03:14:00,
2013-11-21 21:19:00,55.0,49.3,30.20,NW,315,2.4,2.4,81,0.25,RA,,0.25,20.0,WeatherDisplay:10.37,2013-11-22 03:19:00,
2013-11-21 21:24:00,54.1,48.8,30.20,NW,315,8.1,8.1,82,0.25,RA,,0.25,20.0,WeatherDisplay:10.37,2013-11-22 03:24:00,
2013-11-21 21:29:00,53.4,48.1,30.21,NNW,338,3.8,3.8,82,0.25,,,0.25,10.0,WeatherDisplay:10.37,2013-11-22 03:29:00,
2013-11-21 21:34:00,52.7,47.4,30.21,WNW,292,3.5,3.5,82,0.25,CLR,,0.25,10.0,WeatherDisplay:10.37,2013-11-22 03:34:00,
2013-11-21 21:39:00,52.2,47.2,30.21,NNW,338,2.3,2.3,83,0.25,CLR,,0.25,10.0,WeatherDisplay:10.37,2013-11-22 03:39:00,
2013-11-21 21:44:00,51.8,46.8,30.21,NNE,22,2.3,2.3,83,0.25,CLR,,0.25,10.0,WeatherDisplay:10.37,2013-11-22 03:44:00,
2013-11-21 21:49:00,51.4,46.8,30.20,WNW,292,1.2,1.5,84,0.28,RA,,0.28,10.0,WeatherDisplay:10.37,2013-11-22 03:49:00,
2013-11-21 21:54:00,51.1,46.7,30.20,ESE,112,4.6,4.6,85,0.28,RA,,0.28,10.0,WeatherDisplay:10.37,2013-11-22 03:54:00,
2013-11-21 21:59:00,50.7,46.4,30.20,NNW,338,2.9,2.9,85,0.31,RA,,0.31,10.0,WeatherDisplay:10.37,2013-11-22 03:59:00,
2013-11-21 22:04:00,50.5,46.2,30.20,NNE,22,1.2,1.2,85,0.31,RA,,0.31,0.0,WeatherDisplay:10.37,2013-11-22 04:04:00,
2013-11-21 22:09:00,50.0,45.7,30.22,NNW,338,3.5,3.5,85,0.25,CLR,,0.31,0.0,WeatherDisplay:10.37,2013-11-22 04:09:00,
2013-11-21 22:14:00,49.8,45.8,30.22,West,270,5.8,5.8,86,0.19,CLR,,0.31,0.0,WeatherDisplay:10.37,2013-11-22 04:14:00,
2013-11-21 22:19:00,49.6,45.6,30.22,NNW,338,3.5,3.5,86,0.06,CLR,,0.31,0.0,WeatherDisplay:10.37,2013-11-22 04:19:00,
2013-11-21 22:24:00,49.1,44.8,30.22,WSW,248,4.6,4.6,85,0.06,CLR,,0.31,0.0,WeatherDisplay:10.37,2013-11-22 04:24:00,
2013-11-21 22:29:00,48.6,44.3,30.23,NW,315,4.6,4.6,85,0.06,CLR,,0.31,0.0,WeatherDisplay:10.37,2013-11-22 04:29:00,
2013-11-21 22:34:00,48.4,44.4,30.23,NW,315,3.6,3.6,86,0.06,CLR,,0.31,0.0,WeatherDisplay:10.37,2013-11-22 04:34:00,
2013-11-21 22:39:00,48.0,44.0,30.23,NW,315,3.9,3.9,86,0.06,CLR,,0.31,0.0,WeatherDisplay:10.37,2013-11-22 04:39:00,
2013-11-21 22:44:00,47.8,43.9,30.23,NW,315,6.8,6.8,86,0.06,CLR,,0.31,0.0,WeatherDisplay:10.37,2013-11-22 04:44:00,
2013-11-21 22:49:00,47.7,43.7,30.24,NW,315,4.6,4.6,86,0.03,CLR,,0.31,0.0,WeatherDisplay:10.37,2013-11-22 04:49:00,
2013-11-21 22:55:00,47.1,43.1,30.24,NW,315,2.3,2.5,86,0.03,CLR,,0.31,0.0,WeatherDisplay:10.37,2013-11-22 04:55:00,
2013-11-21 23:00:00,46.9,43.3,30.24,ESE,112,2.3,2.3,87,0.00,CLR,,0.31,0.0,WeatherDisplay:10.37,2013-11-22 05:00:00,
2013-11-21 23:01:00,46.8,42.8,30.24,North,0,2.3,2.3,86,0.00,CLR,,0.31,0.0,WeatherDisplay:10.37,2013-11-22 05:01:00,
2013-11-21 23:06:00,46.6,42.9,30.24,NNW,338,6.9,6.9,87,0.00,CLR,,0.31,0.0,WeatherDisplay:10.37,2013-11-22 05:06:00,
2013-11-21 23:11:00,46.4,42.7,30.24,NW,315,4.6,4.6,87,0.00,CLR,,0.31,0.0,WeatherDisplay:10.37,2013-11-22 05:11:00,
2013-11-21 23:16:00,46.6,42.9,30.24,NW,315,3.5,3.5,87,0.00,CLR,,0.31,0.0,WeatherDisplay:10.37,2013-11-22 05:16:00,
2013-11-21 23:21:00,45.9,41.9,30.24,NW,315,4.6,4.6,86,0.00,CLR,,0.31,0.0,WeatherDisplay:10.37,2013-11-22 05:21:00,
2013-11-21 23:26:00,45.5,41.6,30.24,NW,315,3.5,3.5,86,0.00,CLR,,0.31,0.0,WeatherDisplay:10.37,2013-11-22 05:26:00,
2013-11-21 23:31:00,45.0,41.0,30.25,NNW,338,4.6,4.6,86,0.00,CLR,,0.31,0.0,WeatherDisplay:10.37,2013-11-22 05:31:00,
2013-11-21 23:36:00,44.8,41.1,30.25,NW,315,3.5,3.5,87,0.00,CLR,,0.31,0.0,WeatherDisplay:10.37,2013-11-22 05:36:00,
2013-11-21 23:41:00,44.8,41.1,30.25,WNW,292,5.9,5.9,87,0.00,CLR,,0.31,0.0,WeatherDisplay:10.37,2013-11-22 05:41:00,
2013-11-21 23:46:00,44.2,40.6,30.26,WNW,292,2.3,2.5,87,0.00,CLR,,0.31,0.0,WeatherDisplay:10.37,2013-11-22 05:46:00,
2013-11-21 23:51:00,44.2,40.6,30.26,WNW,292,3.5,3.5,87,0.00,CLR,,0.31,0.0,WeatherDisplay:10.37,2013-11-22 05:51:00,
2013-11-21 23:56:00,43.9,40.3,30.26,NW,315,2.3,2.9,87,0.00,CLR,,0.31,0.0,WeatherDisplay:10.37,2013-11-22 05:56:00,